Regional Weather Roundup
Issued by NWS Sioux Falls, SD

Home | Current Version | Previous Version | Text Only | Print | Product List | Glossary Off
Versions: 1 2 3 4 5 6 7 8 9 10 11 12 13 14 15 16 17 18 19 20 21 22 23 24 25 26 27 28 29 30 31 32 33 34 35 36 37 38 39 40 41 42 43 44 45 46 47 48 49 50

000
ASUS43 KFSD 250502
RWRFSD

WEATHER ROUNDUP FOR SE SOUTH DAKOTA/SW MINNESOTA/NW IOWA
NATIONAL WEATHER SERVICE SIOUX FALLS SD
1200 AM CDT SAT OCT 25 2014

NOTE: "FAIR" INDICATES FEW OR NO CLOUDS BELOW 12,000 FEET WITH NO
SIGNIFICANT WEATHER AND OR OBSTRUCTIONS TO VISIBILITY.


SDZ038>040-050-052>070-250600-
SOUTHEAST SOUTH DAKOTA

CITY           SKY/WX    TMP DP  RH WIND       PRES   REMARKS
CHAMBERLAIN    CLEAR     44  36  73 CALM      30.05R
HURON          CLOUDY    56  39  53 N8        30.02R
MADISON        FAIR      50  39  66 NW13      30.02R
MITCHELL       PTCLDY    56  38  50 NW3       30.01F
SIOUX FALLS    CLEAR     54  41  61 CALM      30.01R
WINNER         FAIR      54  32  43 W6        30.06R
YANKTON        CLEAR     52  43  71 CALM      30.01S
$$

MNZ071-072-080-081-089-090-097-098-250600-
SOUTHWEST MINNESOTA

CITY           SKY/WX    TMP DP  RH WIND       PRES   REMARKS
FAIRMONT       CLEAR     54   7  15 W10       29.95S
JACKSON        CLEAR     54  39  58 W6        29.99R
LUVERNE        CLEAR     52  41  66 NW5       30.01R
MARSHALL       MOCLDY    57  39  51 NW13      29.98R
MONTEVIDEO     MOCLDY    57  43  58 N6        29.97R
PIPESTONE      PTCLDY    55  41  58 NW7       30.00R
REDWOOD FALLS  PTCLDY    58  42  55 NW9       29.96R
TRACY          PTCLDY    62  41  46 NW10      29.99R
WINDOM         CLEAR     48  39  71 W6        29.98R
WORTHINGTON    CLEAR     54  39  58 W6        30.00R
$$

IAZ001>003-012>014-020>022-031-032-NEZ013-014-SDZ071-250600-
NORTHWEST IOWA

CITY           SKY/WX    TMP DP  RH WIND       PRES   REMARKS
CHEROKEE       CLEAR     46  46 100 CALM      30.00R
DENISON        CLEAR     48  48 100 CALM      29.99S
ESTHERVILLE    CLEAR     51  39  63 W8        29.96R
LE MARS        CLEAR     48  45  87 CALM      30.02R
ORANGE CITY    CLEAR     55  43  62 W7        30.01R
SHELDON        CLEAR     48  43  81 W5        29.99R
SIOUX CITY     CLEAR     48  44  86 NW7       30.01R
SPENCER        CLEAR     46  42  86 W6        29.99R
STORM LAKE     CLEAR     54  46  76 W9        30.00S
$$

ABBREVIATIONS USED IN REMARKS
   TC - TEMPERATURE IN CELSIUS
  WCI - WIND CHILL INDEX
   HX - HEAT INDEX
  VSB - VISIBILITY




USA.gov is the U.S. government's official web portal to all federal, state and local government web resources and services.